Meath Environmental Platform

Observations for Trim Patrick St

Time AQI Temp °C Hum % Pres Pa CO μg/m³ H₂S μg/m³ NO μg/m³ NO₂ μg/m³ O₃ μg/m³ SO₂ μg/m³ PM1 μg/m³ PM2.5 μg/m³ PM10 μg/m³
Friday 7 August 2026
13:13 2 27.1 36 69,023 0 0 1.63 11.26 91.07 9.35 2.86 9.68 10.64
13:12 2 27 36 69,027 0 0 1.69 12.74 89.4 9.05 2.86 8.88 9.77
13:11 2 27 36 68,999 0 0 1.74 12.63 74.4 8.3 3.71 9.71 10.68
13:10 2 27 36 69,029 0 0 1.63 10.69 71.3 8.44 2.86 9.65 10.61
13:09 2 26.9 36 69,039 0 0 1.79 11.39 70.6 7.8 2.86 8.9 9.79
13:08 2 26.9 36 69,051 0 0 1.77 8.86 56.04 7.62 2.86 9.68 10.64
13:07 2 26.9 36 69,039 0 0 1.75 12.99 93.18 8.26 2.86 9.66 10.63
13:06 2 26.8 36 69,023 0 0 1.81 11.88 84.82 7.45 3.71 10.46 11.51
13:05 2 26.7 37 68,993 0 0 1.73 10.91 78.38 7.79 3.71 8.83 9.71
13:04 2 26.6 37 68,993 0 0 1.72 10.54 71.3 7.17 2.86 8.81 9.69
13:03 2 26.5 37 68,993 0 3.9 1.75 12.79 85.97 8.17 2.86 8.79 9.67
13:02 2 26.4 38 68,957 0 5.61 1.83 19.11 94.47 8.66 2 7.99 8.78
13:01 2 26.3 37 68,943 0 1.49 1.87 11.44 91.75 8.3 2.86 8.79 9.67
13:00 2 26.4 37 68,928 0 1.43 1.86 12.55 95.88 8.4 3.71 9.6 10.56
12:59 2 26.4 37 68,937 0 4.12 1.89 13.98 66.06 9.7 2.86 9.61 10.57
12:58 2 26.4 37 68,924 0 0.31 1.92 12.87 86.47 8 3.71 9.63 10.6
12:57 2 26.3 37 68,932 0 0.83 1.87 12.05 97.04 7.89 4.57 9.61 10.57
12:56 2 26.3 37 68,945 0 0 1.89 10.52 92.89 8.11 2 8.02 8.83
12:55 2 26.3 37 68,967 0 0 1.94 11.39 93.77 7.66 2.86 8.81 9.7
12:53 2 26.1 38 68,953 0 0 1.89 10.3 89.33 6.82 4.57 10.35 11.39